Tracking 20241 objects as of 26-Jan-2020
HD Live streaming from Space Station
objects crossing your sky now

FENGYUN 1C DEB

Track FENGYUN 1C DEB now!
10-day predictions


NORAD ID: 30010
Int'l Code: 1999-025MK
Perigee: 767.8 km
Apogee: 873.9 km
Inclination: 98.9 °
Period: 101.2 minutes
Semi major axis: 7191 km
RCS: 0.1109 m2 (medium)
Launch date: May 10, 1999
Source: People's Republic of China (PRC)
Launch site: Taiyaun Space Center, China (TSC)

Note: This is SATELLITE DEBRIS
aabbcc
Your satellite tracking list
Your tracking list is empty




NASA's NSSDC Master Catalog

Two Line Element Set (TLE):
1 30010U 99025MK  20025.57402435 -.00000011 +00000-0 +14954-4 0  9998
2 30010 098.8581 143.7166 0073758 267.6675 102.2948 14.23440815676896
Source of the keplerian elements: AFSPC